2022-098A (53444 NORAD) Tracking and Keplerian Element Data

This shows tracking and keplerian element data for the satellite.

Feedback or suggestion? Click here.




ElementValue
Catalog53444
Name2022-098A
Epoch Orbit724
Epoch Day270.20511142
Epoch Year2022
RAAN5.6464
Inclination97.531
Eccentricity0.0013271
Argument of Perigee90.0602
Mean Anonmoly327.5009
Mean Motion15.0896404
Decay Rate4.583E-05
L11 53444U 22098A 22270.20511142 .00004583 00000+0 29362-3 0 9994
L22 53444 97.5310 5.6464 0013271 90.0602 327.5009 15.08964040 7249

Live tracking and technical data element details for 2022-098A (NORAD 53444). 2022-098A can be tracked NOW for your location showing map with azimuth and elevation plus other details from your city location.

Track the satellite on the map from your city or location and see movement details for azimuth, elevation, latitude, longitude, range, height, and movement on the map or in text.







IsCatalogInMostPopularTable: catalog: 53444, numindb: 3
Update: records affected: 1



GetName: 53444 2022-098A

Hit Count: updated at: Thu, 29 Sep 2022 10:32:49 GMT